Weather Roundup
Issued by NWS Chicago, IL

Home | Current Version | Previous Version | Text Only | Print | Product List | Glossary Off
Versions: 1 2 3 4 5 6 7 8 9 10 11 12 13 14 15 16 17 18 19 20 21 22 23 24 25 26 27 28 29 30 31 32 33 34 35 36 37 38 39 40 41 42 43 44 45 46 47 48 49 50

000
NZUS59 KLOT 041003
HRRLOT

CHICAGO AREA WEATHER ROUNDUP
NATIONAL WEATHER SERVICE CHICAGO/ROMEOVILLE IL
400 AM CST SUN DEC 04 2016

NOTE: "FAIR" INDICATES FEW OR NO CLOUDS BELOW 12,000 FEET WITH NO
SIGNIFICANT WEATHER AND/OR OBSTRUCTIONS TO VISIBILITY.

* THESE STATIONS ARE NOT UNDER NWS QUALITY CONTROL. THEY ALSO MAY NOT
  REPORT WEATHER SUCH AS PRECIPITATION OR FOG.

ILZ005-006-012>014-019>023-041100-
NORTHEAST ILLINOIS

CITY           SKY/WX    TMP DP  RH WIND       PRES   REMARKS
OHARE          CLOUDY    31  25  78 CALM      30.21F
MIDWAY         CLOUDY    33  24  69 CALM      30.22F
AURORA         CLOUDY    32  27  81 E5        30.20F WCI  27
LANSING*       CLOUDY    31  29  92 CALM      30.22F
WAUKEGAN       CLOUDY    31  27  85 CALM      30.20F
DUPAGE AIRPORT CLOUDY    31  25  78 CALM      30.20F
WHEELING       CLOUDY    32  25  75 CALM      30.22F
KANKAKEE*      CLOUDY    32  28  87 E3        30.22F
MORRIS*        CLOUDY    32  28  86 CALM      30.20F
NORTHERLY ISL    N/A     33  24  70 S3          N/A
$$

WIZ051-052-058>065-066-070>072-041100-
SOUTHEAST WISCONSIN

CITY           SKY/WX    TMP DP  RH WIND       PRES   REMARKS
MILWAUKEE      CLOUDY    29  23  78 CALM      30.20F
KENOSHA*       CLOUDY    31  26  82 CALM      30.20F
RACINE*        CLOUDY    29  25  85 CALM      30.22F
WAUKESHA       CLOUDY    28  23  80 S5        30.20F WCI  23
WEST BEND      CLOUDY    28  27  93 CALM      30.20S
$$

INZ001>003-010>013-019-020-041100-
NORTHWEST INDIANA

CITY           SKY/WX    TMP DP  RH WIND       PRES   REMARKS
GARY*          NOT AVBL
MICHIGAN CITY* NOT AVBL
RENSSELAER*    NOT AVBL
VALPARAISO     CLOUDY    31  27  85 NE3       30.22F
$$

LMZ740>746-041100-
SOUTHERN LAKE MICHIGAN

STATION/POSITION TIME  SKY/WX   TEMP WIND        PRES    VSBY
                                AIR  DIR/SP/G
                 (UTC)          (F)  (DEG/KT/KT) (MB)    (MI)
HARRISON CRIB    0940            34  190/  7/  8   N/A
BURNHAM HARBOR   1000            33  210/  1/  5   N/A
CALUMET HARBOR   0930            32  210/  2/  3 1022.8F
BURNS HARBOR     0940            33  180/  5/  7 1024.0F
MICHIGAN CITY    0940            33  140/  5/  6   N/A
$$

ABBREVIATIONS USED IN REMARKS
   TC - TEMPERATURE IN CELSIUS
  WCI - WIND CHILL INDEX
   HX - HEAT INDEX
  VSB - VISIBILITY
$$




USA.gov is the U.S. government's official web portal to all federal, state and local government web resources and services.